Location: Haltenberg
(48.1385°N, 10.8680°E)
Time: 21:59:15
(UTC+00:00)

Daily predictions for brighter satellites

Satellite Brightness Start Highest point End
(mag) Time Altitude Azimuth Time Altitude Azimuth Time Altitude Azimuth
Cosmos-2242 4.4 15:51:11 10° SE 15:54:15 19° E 15:57:19 10° NE
Lacrosse 4 Rocket 2.2 15:51:20 10° NNW 15:55:18 32° NE 15:59:09 10° ESE
Cosmos 2058 Rocket 3.3 15:52:06 10° S 15:56:25 53° E 16:00:43 10° NNE
USA 234 4.4 15:51:36 10° ENE 15:57:00 27° SE 16:02:23 10° S
SL-08 RB Rocket 3.7 15:54:18 10° SSE 15:58:46 85° ENE 16:03:19 10° NNW
Cosmos 2279 Rocket 4.0 15:53:43 10° N 15:59:59 71° E 16:06:11 10° SSE
Cosmos 1269 Rocket 4.1 15:57:10 10° NNW 16:02:29 86° WSW 16:07:46 10° SSE
Cosmos 1606 Rocket 4.3 15:58:11 10° SSW 16:02:34 56° WNW 16:06:56 10° N
Cosmos 1726 Rocket 3.9 15:58:58 10° SSW 16:03:24 72° W 16:07:50 10° N
CZ-2D R/B 3.1 16:00:35 10° SSE 16:04:13 69° ENE 16:07:53 10° N
Cosmos 1812 3.9 16:06:38 10° SE 16:09:29 21° E 16:12:21 10° NE
YAOGAN 11 4.3 16:10:17 10° NNE 16:14:47 58° ESE 16:19:16 10° S
USA 276 2.2 16:12:54 10° SW 16:15:11 41° SSE 16:17:13 13° E
CZ-2C R/B 2.5 16:12:14 10° SSE 16:15:46 72° ENE 16:19:23 10° N
Cosmos 2263 Rocket 2.2 16:11:14 10° SSW 16:16:45 71° ESE 16:22:19 10° NNE
Cosmos 1437 Rocket 3.2 16:13:31 10° NNW 16:17:12 61° W 16:20:55 10° S
Cosmos 1844 Rocket 4.2 16:14:10 10° SE 16:17:29 16° E 16:20:21 11° ENE
Nadezhda 4 Rocket 4.3 16:14:45 10° SSE 16:20:32 45° E 16:26:19 10° NNE
CORIOLIS 4.1 16:15:21 10° SSE 16:20:38 64° ENE 16:25:57 10° N
ERS-2 2.9 16:19:26 10° S 16:22:15 44° W 16:25:05 10° NNW
USA 307 2.7 16:20:45 10° WNW 16:24:37 77° SSW 16:28:25 10° SE
Cosmos 2227 Rocket 3.3 16:19:44 10° WSW 16:25:04 41° NW 16:30:25 10° NNE
Cosmos 44 4.4 16:22:12 10° NW 16:27:27 54° WSW 16:32:27 10° SSE
Meteor 1-20 Rocket 4.4 16:22:02 10° N 16:27:28 50° ENE 16:32:56 10° SSE
Cosmos 1140 Rocket 3.5 16:22:57 10° NNW 16:28:05 57° ENE 16:33:08 10° SE
YAOGAN 1 4.3 16:29:59 13° NE 16:29:59 13° NE 16:31:31 10° NNE
SAR-Lupe-2 4.1 16:25:57 10° S 16:29:29 62° WSW 16:33:03 10° NNW
Cosmos 1666 2.5 16:30:55 10° N 16:34:27 85° W 16:37:59 10° S
Cosmos 1603 3.8 16:32:29 10° NNW 16:38:07 56° ENE 16:43:39 10° SE
DMSP B5D2-2 4.0 16:33:36 10° NNE 16:38:51 87° ESE 16:44:04 10° SSW
Cosmos 1076 Rocket 4.4 16:37:25 10° NNW 16:41:41 52° W 16:45:54 10° S
Meteor 1-31 Rocket 2.6 16:38:59 10° SSE 16:42:41 85° ENE 16:46:26 10° NNW
USA 306 4.0 16:45:47 10° W 16:47:30 20° SW 16:49:09 10° SSE
SL-08 R/B 4.4 16:46:50 20° ENE 16:48:10 22° E 16:51:48 10° SE
SL-16 R/B 4.4 16:45:54 10° NW 16:50:45 30° WSW 16:55:34 10° SSW
ATLAS CENTAUR R/B 2.9 16:47:12 10° NW 16:51:25 77° SW 16:59:42 10° SE
Cosmos 1602 4.1 16:49:37 10° NNW 16:53:19 63° W 16:57:00 10° S
RESURS DK-1 3.5 16:52:45 10° N 16:56:07 24° NE 16:56:12 24° NE
USA 305 3.2 16:52:33 10° WNW 16:56:20 58° SW 17:00:05 10° SE
CZ-4B R/B 3.4 16:53:32 10° SSE 16:58:34 69° ENE 17:03:28 10° N
Cosmos 1782 3.1 16:57:33 10° SSE 17:01:15 42° E 17:03:03 25° NE
Cosmos 1812 Rocket 3.4 16:57:18 10° S 17:01:37 71° E 17:05:59 10° NNE
Cosmos 1943 3.4 16:56:26 10° NNW 17:02:04 74° WSW 17:07:41 10° SSE
Helios 1A 3.0 16:58:42 14° NNE 17:02:15 59° ESE 17:06:21 10° S
ATLAS 2AS CENTAUR R/B 2.9 16:57:40 10° NW 17:04:27 50° NE 17:09:08 19° ESE
SMAP 4.0 17:00:51 10° S 17:05:22 51° W 17:09:56 10° NNW
NOAA 6 3.9 17:01:20 10° SSE 17:06:24 64° ENE 17:11:29 10° N
Radarsat Rocket 3.8 17:07:09 10° SSE 17:12:55 73° ENE 17:19:03 10° NNW
Cosmos 407 Rocket 3.5 17:08:14 10° NNW 17:13:26 84° WSW 17:18:33 10° SSE
Cosmos 2297 Rocket 4.5 17:10:43 10° WNW 17:14:00 15° NW 17:17:18 10° N
ISS -0.8 17:17:44 10° W 17:19:50 16° SW 17:21:56 10° S
Cosmos 2251 Rocket 3.8 17:15:51 10° NNW 17:21:11 70° WSW 17:26:31 10° S
Cosmos 220 Rocket 3.8 17:20:43 10° NNW 17:25:02 68° ENE 17:27:54 20° SE
Cosmos 2056 Rocket 3.8 17:22:22 10° S 17:27:30 46° ESE 17:28:45 39° ENE
SME Rocket 4.4 17:21:49 10° SE 17:27:31 57° ENE 17:36:18 10° NNW
COSMOS 2455 4.0 17:23:21 10° SSE 17:27:03 23° ESE 17:27:03 23° ESE
Cosmos 1954 Rocket 4.0 17:22:51 10° NNW 17:28:04 58° ENE 17:31:28 21° SE
Timation 2 Rocket 4.0 17:22:38 10° S 17:28:24 53° ESE 17:30:41 34° NE
Cosmos 1844 3.9 17:23:06 10° S 17:28:38 50° ESE 17:30:24 37° ENE
CZ-4 R/B 4.4 17:26:02 10° SSE 17:30:08 85° WSW 17:34:15 10° NNW
Lacrosse 5 2.0 17:25:42 10° SSW 17:30:37 55° SE 17:31:43 45° E
Cosmos-2242 4.1 17:27:07 10° SSW 17:31:17 45° WNW 17:35:28 10° N
COSMO-SKYMED 1 2.4 17:29:30 29° NNE 17:31:44 79° ESE 17:36:04 10° S
Lacrosse 4 Rocket 3.1 17:29:47 10° NW 17:33:43 35° WSW 17:37:34 10° S
Cosmos 1833 Rocket 4.0 17:30:28 10° N 17:33:48 23° NNE 17:33:48 23° NNE
Cosmos 1553 Rocket 3.9 17:33:15 10° N 17:39:31 60° ENE 17:45:39 10° SSE
APEX 4.0 17:37:26 10° SW 17:39:57 33° WNW 17:39:57 33° WNW
USA 234 3.2 17:37:35 35° ENE 17:40:38 82° SE 17:47:12 10° SW
Cosmos 2221 2.6 17:37:31 10° S 17:41:02 54° SE 17:41:02 54° SE
Cosmos 2344 3.4 17:35:21 10° SW 17:42:55 88° NW 17:47:04 29° NE
Cosmos 1190 Rocket 4.1 17:40:12 10° NNW 17:45:32 78° WSW 17:50:48 10° SSE
Cosmos 1818 3.6 17:41:19 10° SW 17:46:45 75° NW 17:48:45 40° NNE
Cosmos 2026 Rocket 4.1 17:41:43 10° SSW 17:47:59 80° W 17:54:23 10° N
Cosmos 1371 Rocket 3.9 17:46:30 10° SSW 17:51:42 74° ESE 17:52:32 61° NE
NOAA 15 4.4 17:48:54 10° SSE 17:54:11 76° ENE 17:59:30 10° NNW
Cosmos 1844 Rocket 2.6 17:55:01 10° SSW 18:00:36 85° WNW 18:02:02 52° NNE
Cosmos 2263 Rocket 4.0 17:56:42 10° W 18:01:13 25° NW 18:05:03 13° N
Meteor 1-26 Rocket 4.1 17:55:44 10° S 18:01:17 88° WNW 18:04:18 30° N
Cosmos 1766 Rocket 3.8 17:59:50 10° NNW 18:04:09 66° W 18:08:26 10° S
YAOGAN 1 4.0 18:07:02 28° NNW 18:07:02 28° NNW 18:09:09 10° NNW
Cosmos 1092 Rocket 4.5 17:59:33 10° SSW 18:05:36 58° WNW 18:11:40 10° N
Cosmos 1420 Rocket 4.0 18:02:26 10° SSW 18:07:41 80° WNW 18:08:27 65° N
ADEOS 4.2 18:04:57 10° S 18:10:04 55° W 18:15:13 10° NNW
Cosmos 2082 Rocket 4.3 18:08:30 10° N 18:09:22 13° N 18:09:22 13° N
Cosmos 1624 Rocket 4.0 18:10:17 10° SSW 18:15:30 76° WNW 18:15:39 75° NW
Cosmos 1417 Rocket 4.3 18:17:37 10° N 18:23:59 84° E 18:24:06 83° ESE
SL-08 R/B 4.1 18:25:44 45° NW 18:26:07 46° WNW 18:30:32 10° SW
RESURS DK-1 4.5 18:30:12 10° NW 18:31:56 23° NW 18:31:56 23° NW
BREEZE-M DEB 4.5 18:29:40 10° WSW 18:49:08 80° SSE 18:49:10 80° SSE
ATLAS 2AS CENTAUR R/B 3.4 18:48:52 10° NW 18:55:21 47° WSW 18:56:38 42° SSW
COSMOS 2455 4.4 19:07:27 10° SW 19:10:14 29° SW 19:10:14 29° SW
Lacrosse 5 4.0 19:08:52 10° W 19:10:56 23° W 19:10:56 23° W
USA 234 4.2 19:24:56 42° NW 19:24:56 42° NW 19:29:41 10° W
